Flag for U.S.A. Weather past 2 weeks in Oceanside, California, U.S.A.

Now
57 °F

Haze.


Feels Like: 57 °F
Forecast: 52 / 70 °F
Wind: 5 mph from East

Location: Oceanside Weather Reporting Station


UV Index: 7 (High)

Visibility: 6 mi


Pressure: 30.04 "Hg

Humidity: 83%

Dew point: 52 °F

Location of OceansideLocation

Historic Weather in Oceanside

°F

Oceanside temperature yesterday

Maximum temperature yesterday: 69 °F (at 10:52 AM)
Minimum temperature yesterday: 48 °F (at 5:52 AM)
Average temperature yesterday: 60 °F

Past Weeks' High & Low Weather Summary

 TemperatureHumidityPressure
High85 °F (Apr 8, 1:52 PM)97% (Apr 14, 6:52 AM)30.09 "Hg (Apr 14, 6:52 AM)
Low42 °F (Apr 10, 4:52 AM)23% (Apr 8, 3:52 PM)29.80 "Hg (Apr 16, 4:52 PM)
Average61 °F69%29.96 "Hg
* Reported Apr 5 7:52 AM — Apr 20 7:52 AM, Oceanside, Weather by CustomWeather, © 2014

Note: Actual official high and low records may vary slightly from our data, if they occured in-between our weather recording intervals... More about our weather records

Advertising

Historic Weather Conditions — Data for Previous 24 hours

 ConditionsComfort  
Time TempWeatherWind HumidityBarometerVisibility
7:52 AM
Apr 20
57 °FHaze.5 mph83%30.04 "Hg6 mi
6:52 AM53 °FFog.No wind93%30.04 "Hg6 mi
5:52 AM52 °FMostly cloudy.No wind93%30.03 "Hg7 mi
4:52 AM54 °FOvercast.3 mph93%30.02 "Hg7 mi
3:52 AM56 °FOvercast.No wind87%30.03 "Hg8 mi
2:52 AM55 °FOvercast.3 mph93%30.03 "Hg7 mi
1:52 AM53 °FOvercast.No wind93%30.03 "Hg7 mi
12:52 AM53 °FClear.No wind96%30.04 "Hg7 mi
11:52 PM
Apr 19
55 °FClear.No wind96%30.04 "Hg7 mi
10:52 PM58 °FClear.No wind87%30.04 "Hg7 mi
9:52 PM61 °FOvercast.No wind83%30.04 "Hg9 mi
8:52 PM60 °FPassing clouds.3 mph86%30.03 "Hg9 mi
7:52 PM60 °FPartly sunny.No wind86%30.01 "Hg9 mi
6:52 PM61 °FPassing clouds.5 mph83%29.99 "Hg8 mi
5:52 PM64 °FScattered clouds.9 mph75%29.99 "Hg9 mi
4:52 PM66 °FSunny.10 mph70%29.97 "Hg9 mi
3:52 PM66 °FPassing clouds.8 mph70%29.98 "Hg8 mi
2:52 PM68 °FPassing clouds.8 mph65%29.98 "Hg9 mi
1:52 PM68 °FSunny.12 mph59%29.98 "Hg10 mi
12:52 PM68 °FSunny.10 mph59%29.99 "Hg10 mi
11:52 AM68 °FSunny.9 mph61%30.00 "Hg10 mi
10:52 AM69 °FSunny.12 mph55%30.00 "Hg10 mi
9:52 AM67 °FSunny.7 mph61%29.99 "Hg10 mi
8:52 AM63 °FSunny.3 mph70%29.97 "Hg10 mi
Weather by CustomWeather, © 2014

See weather overview